Погода в Карамышеве

Россия / Липецкая область     52°22′08″N   39°27′43″E
темп.,
°C
ветер,
м/с
пор.,
м/с
влажн.,
%
обл.,
%
осадки,
мм/ч
давл.,
гПа
погр.,
м
25 февраля, чт
чт2500:00−13ююз4995100 0.4 1034413
03:00−12ююз4993100 0.8 1032411
06:00−10юз51093100 0.1 1028402
09:00−8юз51094100 0.8 1026386
12:00−3юз51292100 0.3 1022447
15:00+1зюз61596100 0.6 1019566
18:00+2з51298100 0.5 1017392
21:00+2з41199100 0.8 1018333
26 февраля, пт
пт2600:00+2зсз41298100 0.2 1017373
03:00+2зсз41199100 0.4 1018350
06:00+2з41199100 0.1 1016358
09:00+2з51298100 0.1 1016372
12:00+3з51199100 0.1 1014485
15:00+3з61497100 0.1 1013719
18:00+3з51497100 0.3 1010550
21:00+3з51396100 0.3 1010610
27 февраля, сб
сб2700:00+2з41294100 0.0 1009621
03:00+1з41094100 0.1 1008520
06:00+1з41192100 0.1 1006509
09:00+1з51097100 0.2 1006635
12:00+2з5995100 0.1 1005632
15:00+1з41096100 0.2 1004592
18:00+1з51097100 0.1 1004612
21:000сз61197100 0.3 1006771
28 февраля, вс
вс2800:00−6ссз51083100 0.1 1008832
03:00−8ссз61082100 0.2 1012775
06:00−10ссз51085100 0.1 1014721
09:00−10ссз51083100 0.1 1016648
12:00−8ссз5879100 0.0 1017648
15:00−7ссз5880100 0.1 1018653
18:00−9ссз4987100 0.0 1019592
21:00−9ссз399096 0.0 1022525
1 марта, пн
пн100:00−9ссз389284 0.0 1023467
03:00−10ссз279374 0.0 1025306
06:00−10ссз389373 0.0 1026378
09:00−9с378875 0.0 1028428
12:00−6ссз368294 0.0 1029526
15:00−4сз358297 0.0 1029523
18:00−6зсз249391 0.0 1029115
21:00−6з369468 0.0 1030165